| |
Missouri Department of Transportation

Social Media Facebook Twitter Flickr Instagram YouTube RSS

Current AWOS Information

 
AWOS Home - General Info for all Airports
Current AWOS for all Airports - Current METAR for all Airports
Glossary - Disclaimer - Other Links


MALDEN--MALDEN REGIONAL--KMAW
 
Recent AWOS History
 
07/06/15     09:52 PM CDT      02:52 GMT
Air Temperature 79°F (26°C ) 1st Cloud Layer Clear
Dew Point 74°F (23°C) 2nd Cloud Layer  
Barometric Pressure 30.05 in Hg. 3rd Cloud Layer  
Wind Speed 8 mph (7 knots) Density Altitude 1500 feet
Peak Wind Gusts   Variable Wind Directions  
Wind Direction Quadrant(210°) Variable Visibility  
Visibility 10 statute miles  

Thunderstorm and Precipitation Identification: 
Thunderstorm Remarks: 

Current METAR Record: METAR KMAW 060249Z AUTO 21007KT 10SM CLR 26/23 A3005 RMK AO2

 

 

 

About Us
How Do I...
Contact Us
Missouri Department of Transportation
Central Office
105 W. Capitol Avenue
Jefferson City, MO 65102
1-888-ASK-MODOT (275-6636)
1-866-831-6277 (Motor Carrier Services)
Driver's License Offices
horz_bar
| | |
Missouri State Government
© 2013 Missouri Department of Transportation. All Rights Reserved.   Privacy Policy.
 
 
 
 
RSS FeedYoutubeBlogFlickrTwitter Facebook